Cosmos 1470 - Orbit

View from above orbital plane
View from above orbital plane
View from above satellite
View from above satellite

Ground track
Ground track

The orbit data is extracted from the following two-line orbital elements,

1 14147U 83061A   13138.14965952  .00003636  00000-0  25822-3 0  7114
2 14147 082.5095 055.5182 0014219 003.3306 356.8012 15.04369452380067
Epoch (UTC): 18 May 2013 03:35:30
Eccentricity: 0.0014219
inclination: 82.5095°
perigee height: 543 km
apogee height: 563 km
right ascension of ascending node: 55.5182°
argument of perigee: 3.3306°
revolutions per day: 15.04369452
mean anomaly at epoch: 356.8012°
orbit number at epoch: 38006

The dashed part of the orbit path shows where the satellite is in the earth's shadow,  

Developed and maintained by Chris Peat, Heavens-Above GmbH. Please read the updated FAQ before sending e-mail. Imprint. DLR